| time (UTC) | temp F | wind direction | speed MPH | gust MPH | rain 1hr in | rain 24hr in | rain mn in | humidity % | barometer mb |
| 20260505064107 | 70 | 274 | 1.0 | 9.0 | 0.01 | 0.27 | 0.00 | 88 | 1013.5 |
| 20260505063955 | 70 | 323 | 0.0 | 11.0 | 0.01 | 0.27 | 0.00 | 88 | 1013.5 |
| 20260505063556 | 69 | 263 | 2.0 | 18.0 | 0.01 | 0.27 | 0.00 | 88 | 1013.4 |
| 20260505063455 | 69 | 241 | 3.0 | 18.0 | 0.01 | 0.27 | 0.00 | 88 | 1013.5 |
| 20260505063046 | 69 | 291 | 4.0 | 11.0 | 0.01 | 0.27 | 0.00 | 88 | 1013.6 |
| 20260505062955 | 69 | 193 | 5.0 | 11.0 | 0.01 | 0.27 | 0.00 | 88 | 1013.6 |
| 20260505062536 | 70 | 26 | 0.0 | 5.0 | 0.01 | 0.29 | 0.00 | 88 | 1013.6 |
| 20260505062454 | 70 | 52 | 0.0 | 5.0 | 0.01 | 0.30 | 0.00 | 88 | 1013.6 |
| 20260505062026 | 69 | 23 | 2.0 | 7.0 | 0.01 | 0.31 | 0.00 | 88 | 1013.7 |
| 20260505061955 | 69 | 39 | 4.0 | 7.0 | 0.01 | 0.31 | 0.00 | 88 | 1013.7 |
| 20260505061517 | 69 | 224 | 5.0 | 11.0 | 0.01 | 0.33 | 0.00 | 88 | 1013.6 |
| 20260505061455 | 69 | 223 | 5.0 | 11.0 | 0.01 | 0.33 | 0.00 | 88 | 1013.6 |
| 20260505061006 | 69 | 204 | 6.0 | 11.0 | 0.01 | 0.33 | 0.00 | 88 | 1013.7 |
| 20260505060955 | 69 | 242 | 5.0 | 11.0 | 0.01 | 0.33 | 0.00 | 88 | 1013.6 |
| 20260505060457 | 69 | 222 | 5.0 | 14.0 | 0.00 | 0.34 | 0.00 | 88 | 1013.7 |
| 20260505060455 | 69 | 219 | 5.0 | 14.0 | 0.00 | 0.34 | 0.00 | 88 | 1013.7 |
| 20260505055955 | 69 | 244 | 5.0 | 12.0 | 0.00 | 0.35 | 0.00 | 88 | 1013.8 |
| 20260505055945 | 69 | 276 | 5.0 | 12.0 | 0.00 | 0.35 | 0.00 | 88 | 1013.9 |
| 20260505055454 | 69 | 232 | 3.0 | 6.0 | 0.00 | 0.35 | 0.00 | 88 | 1013.9 |
| 20260505055436 | 69 | 274 | 3.0 | 6.0 | 0.00 | 0.35 | 0.00 | 88 | 1014.0 |
| 20260505054955 | 69 | 54 | 1.0 | 11.0 | 0.00 | 0.37 | 0.00 | 88 | 1014.1 |
| 20260505054926 | 69 | 204 | 3.0 | 12.0 | 0.00 | 0.37 | 0.00 | 88 | 1014.0 |
| 20260505054454 | 69 | 249 | 4.0 | 12.0 | 0.00 | 0.38 | 0.00 | 88 | 1014.0 |
| 20260505054416 | 69 | 239 | 3.0 | 10.0 | 0.00 | 0.38 | 0.00 | 88 | 1014.0 |
| 20260505053954 | 69 | 276 | 4.0 | 7.0 | 0.00 | 0.38 | 0.00 | 88 | 1014.0 |
| 20260505053906 | 69 | 239 | 2.0 | 7.0 | 0.00 | 0.38 | 0.00 | 88 | 1014.0 |
| 20260505053454 | 69 | 1 | 0.0 | 2.0 | 0.00 | 0.40 | 0.00 | 88 | 1014.2 |
| 20260505053356 | 69 | 309 | 0.0 | 5.0 | 0.00 | 0.40 | 0.00 | 88 | 1014.2 |
| 20260505052955 | 69 | 253 | 3.0 | 7.0 | 0.00 | 0.41 | 0.00 | 87 | 1014.4 |
| 20260505052454 | 69 | 226 | 4.0 | 10.0 | 0.00 | 0.42 | 0.00 | 87 | 1014.4 |
| 20260505051954 | 69 | 216 | 4.0 | 12.0 | 0.00 | 0.42 | 0.00 | 87 | 1014.6 |
| 20260505051455 | 69 | 214 | 1.0 | 7.0 | 0.00 | 0.42 | 0.00 | 87 | 1014.5 |
| 20260505051315 | 69 | 286 | 3.0 | 7.0 | 0.00 | 0.42 | 0.00 | 87 | 1014.5 |
| 20260505050954 | 69 | 225 | 2.0 | 7.0 | 0.00 | 0.42 | 0.00 | 87 | 1014.6 |
| 20260505050454 | 69 | 35 | 0.0 | 14.0 | 0.00 | 0.43 | 0.00 | 87 | 1014.6 |
| 20260505050256 | 69 | 58 | 6.0 | 14.0 | 0.00 | 0.44 | 0.00 | 87 | 1014.6 |
| 20260505041625 | 69 | 267 | 0.0 | 4.0 | 0.00 | 0.47 | 0.00 | 88 | 1015.2 |
| 20260505041454 | 69 | 240 | 0.0 | 5.0 | 0.00 | 0.47 | 0.00 | 87 | 1015.2 |
| 20260505041115 | 69 | 300 | 1.0 | 5.0 | 0.00 | 0.47 | 0.00 | 88 | 1015.1 |
| 20260505040954 | 69 | 282 | 2.0 | 5.0 | 0.00 | 0.47 | 0.00 | 88 | 1015.2 |
| 20260505040605 | 69 | 305 | 1.0 | 11.0 | 0.00 | 0.47 | 0.00 | 88 | 1015.2 |
| 20260505040454 | 69 | 301 | 4.0 | 13.0 | 0.00 | 0.48 | 0.00 | 88 | 1015.2 |
| 20260505035954 | 69 | 237 | 8.0 | 13.0 | 0.00 | 0.48 | 0.00 | 87 | 1015.3 |
| 20260505035546 | 69 | 183 | 3.0 | 9.0 | 0.00 | 0.48 | 0.00 | 88 | 1015.3 |
| 20260505035453 | 69 | 255 | 2.0 | 9.0 | 0.00 | 0.48 | 0.00 | 87 | 1015.3 |
| 20260505035035 | 69 | 65 | 1.0 | 5.0 | 0.00 | 0.48 | 0.00 | 88 | 1015.3 |
| 20260505034954 | 69 | 35 | 0.0 | 2.0 | 0.00 | 0.48 | 0.00 | 88 | 1015.3 |
| 20260505034524 | 69 | 301 | 0.0 | 10.0 | 0.00 | 0.48 | 0.00 | 88 | 1015.5 |
| 20260505034453 | 69 | 15 | 0.0 | 10.0 | 0.00 | 0.48 | 0.00 | 88 | 1015.5 |
| 20260505034015 | 68 | 286 | 1.0 | 11.0 | 0.00 | 0.48 | 0.00 | 88 | 1015.6 |
| 20260505033953 | 68 | 300 | 1.0 | 11.0 | 0.00 | 0.48 | 0.00 | 88 | 1015.6 |
| 20260505033505 | 68 | 221 | 7.0 | 10.0 | 0.00 | 0.48 | 0.00 | 88 | 1015.7 |
| 20260505033454 | 68 | 228 | 6.0 | 10.0 | 0.00 | 0.48 | 0.00 | 88 | 1015.7 |
| 20260505032956 | 68 | 297 | 2.0 | 8.0 | 0.00 | 0.48 | 0.00 | 88 | 1015.7 |
| 20260505032953 | 68 | 292 | 2.0 | 8.0 | 0.00 | 0.48 | 0.00 | 88 | 1015.7 |
| 20260505032454 | 68 | 211 | 2.0 | 12.0 | 0.00 | 0.48 | 0.00 | 88 | 1015.6 |
| 20260505032445 | 68 | 242 | 1.0 | 12.0 | 0.00 | 0.48 | 0.00 | 88 | 1015.6 |
| 20260505031953 | 68 | 251 | 4.0 | 7.0 | 0.00 | 0.49 | 0.00 | 88 | 1015.7 |
| 20260505031934 | 68 | 248 | 3.0 | 7.0 | 0.00 | 0.49 | 0.00 | 88 | 1015.7 |
| 20260505031453 | 68 | 40 | 5.0 | 16.0 | 0.00 | 0.49 | 0.00 | 88 | 1015.7 |
| 20260505031425 | 68 | 56 | 9.0 | 16.0 | 0.00 | 0.49 | 0.00 | 88 | 1015.7 |
| 20260505030953 | 68 | 211 | 3.0 | 8.0 | 0.00 | 0.49 | 0.00 | 89 | 1015.7 |
| 20260505030914 | 68 | 360 | 1.0 | 5.0 | 0.00 | 0.49 | 0.00 | 89 | 1015.7 |
| 20260505030453 | 68 | 306 | 1.0 | 7.0 | 0.00 | 0.49 | 0.00 | 89 | 1015.8 |
| 20260505030405 | 68 | 345 | 1.0 | 7.0 | 0.00 | 0.49 | 0.00 | 89 | 1015.8 |
| 20260505025954 | 68 | 241 | 3.0 | 4.0 | 0.00 | 0.49 | 0.00 | 89 | 1015.8 |
| 20260505025855 | 68 | 241 | 1.0 | 3.0 | 0.00 | 0.49 | 0.00 | 89 | 1015.8 |
| 20260505025453 | 68 | 285 | 0.0 | 5.0 | 0.00 | 0.50 | 0.00 | 89 | 1015.9 |
| 20260505025344 | 68 | 289 | 1.0 | 6.0 | 0.00 | 0.50 | 0.00 | 89 | 1016.0 |
| 20260505024953 | 67 | 221 | 4.0 | 7.0 | 0.00 | 0.50 | 0.00 | 89 | 1016.0 |
| 20260505024453 | 68 | 199 | 6.0 | 10.0 | 0.00 | 0.50 | 0.00 | 88 | 1016.0 |
| 20260505024324 | 68 | 207 | 6.0 | 10.0 | 0.00 | 0.50 | 0.00 | 89 | 1016.0 |
| 20260505023953 | 67 | 326 | 0.0 | 8.0 | 0.00 | 0.50 | 0.00 | 89 | 1015.9 |
| 20260505023815 | 67 | 346 | 1.0 | 9.0 | 0.00 | 0.50 | 0.00 | 89 | 1015.9 |
| 20260505023453 | 67 | 48 | 4.0 | 9.0 | 0.00 | 0.50 | 0.00 | 88 | 1016.0 |
| 20260505023304 | 67 | 180 | 2.0 | 17.0 | 0.00 | 0.50 | 0.00 | 88 | 1016.0 |
| 20260505022953 | 67 | 180 | 5.0 | 17.0 | 0.00 | 0.50 | 0.00 | 89 | 1016.0 |
| 20260505022755 | 67 | 342 | 1.0 | 7.0 | 0.00 | 0.50 | 0.00 | 89 | 1016.0 |
| 20260505022453 | 67 | 302 | 1.0 | 13.0 | 0.00 | 0.50 | 0.00 | 88 | 1016.0 |
| 20260505022244 | 67 | 251 | 6.0 | 20.0 | 0.00 | 0.50 | 0.00 | 88 | 1015.9 |
| 20260505021953 | 67 | 60 | 7.0 | 20.0 | 0.00 | 0.51 | 0.00 | 88 | 1015.9 |
| 20260505021734 | 67 | 250 | 3.0 | 7.0 | 0.00 | 0.51 | 0.00 | 88 | 1015.9 |
| 20260505021454 | 67 | 191 | 2.0 | 6.0 | 0.00 | 0.51 | 0.00 | 88 | 1015.9 |
| 20260505021224 | 67 | 275 | 1.0 | 6.0 | 0.00 | 0.51 | 0.00 | 89 | 1015.9 |
| 20260505020954 | 67 | 212 | 3.0 | 8.0 | 0.00 | 0.51 | 0.00 | 89 | 1015.9 |
| 20260505020714 | 67 | 231 | 5.0 | 11.0 | 0.00 | 0.51 | 0.00 | 88 | 1015.9 |
| 20260505020453 | 67 | 292 | 3.0 | 11.0 | 0.00 | 0.51 | 0.00 | 88 | 1015.9 |
| 20260505020205 | 67 | 239 | 1.0 | 4.0 | 0.00 | 0.51 | 0.00 | 89 | 1015.9 |
| 20260505015952 | 67 | 283 | 2.0 | 6.0 | 0.00 | 0.51 | 0.00 | 88 | 1016.0 |
| 20260505015654 | 67 | 138 | 1.0 | 9.0 | 0.00 | 0.51 | 0.00 | 88 | 1016.0 |
| 20260505015453 | 67 | 193 | 3.0 | 15.0 | 0.00 | 0.51 | 0.00 | 88 | 1016.0 |
| 20260505015144 | 67 | 244 | 3.0 | 15.0 | 0.00 | 0.51 | 0.00 | 88 | 1015.9 |
| 20260505014953 | 67 | 61 | 4.0 | 11.0 | 0.00 | 0.51 | 0.00 | 88 | 1016.1 |
| 20260505014452 | 67 | 310 | 5.0 | 9.0 | 0.00 | 0.51 | 0.00 | 88 | 1016.0 |
| 20260505014124 | 67 | 214 | 4.0 | 8.0 | 0.00 | 0.51 | 0.00 | 88 | 1016.0 |
| 20260505013953 | 67 | 197 | 3.0 | 8.0 | 0.00 | 0.51 | 0.00 | 88 | 1016.0 |
| 20260505013614 | 66 | 253 | 2.0 | 10.0 | 0.00 | 0.51 | 0.00 | 88 | 1016.0 |
| 20260505013453 | 66 | 287 | 6.0 | 10.0 | 0.00 | 0.51 | 0.00 | 88 | 1016.0 |
| 20260505013104 | 67 | 288 | 2.0 | 8.0 | 0.00 | 0.51 | 0.00 | 88 | 1016.0 |
| 20260505012952 | 67 | 347 | 0.0 | 8.0 | 0.00 | 0.51 | 0.00 | 88 | 1016.0 |
| 20260505012452 | 66 | 236 | 3.0 | 9.0 | 0.00 | 0.51 | 0.00 | 88 | 1016.0 |
| 20260505011953 | 66 | 229 | 2.0 | 7.0 | 0.00 | 0.51 | 0.00 | 88 | 1016.0 |
| 20260505011533 | 66 | 44 | 3.0 | 9.0 | 0.00 | 0.51 | 0.00 | 88 | 1015.9 |
| 20260505011452 | 66 | 49 | 4.0 | 9.0 | 0.00 | 0.51 | 0.00 | 88 | 1015.9 |
| 20260505011023 | 67 | 2 | 0.0 | 5.0 | 0.00 | 0.51 | 0.00 | 88 | 1016.0 |
| 20260505010952 | 67 | 318 | 0.0 | 5.0 | 0.00 | 0.51 | 0.00 | 88 | 1016.0 |
| 20260505010514 | 66 | 228 | 4.0 | 8.0 | 0.00 | 0.51 | 0.00 | 87 | 1016.0 |
| 20260505010452 | 66 | 248 | 2.0 | 8.0 | 0.00 | 0.51 | 0.00 | 87 | 1016.0 |
| 20260505005953 | 66 | 314 | 3.0 | 17.0 | 0.00 | 0.51 | 0.00 | 87 | 1015.9 |
| 20260505005454 | 67 | 333 | 3.0 | 6.0 | 0.00 | 0.51 | 0.00 | 87 | 1015.9 |
| 20260505005452 | 67 | 334 | 3.0 | 6.0 | 0.00 | 0.51 | 0.00 | 87 | 1015.9 |
| 20260505004952 | 67 | 252 | 3.0 | 7.0 | 0.00 | 0.51 | 0.00 | 87 | 1015.8 |
| 20260505004944 | 67 | 288 | 3.0 | 7.0 | 0.00 | 0.51 | 0.00 | 87 | 1015.8 |
| 20260505004452 | 67 | 287 | 3.0 | 7.0 | 0.00 | 0.51 | 0.00 | 87 | 1015.7 |
| 20260505004434 | 67 | 290 | 3.0 | 7.0 | 0.00 | 0.51 | 0.00 | 87 | 1015.7 |
| 20260505003953 | 67 | 234 | 4.0 | 6.0 | 0.00 | 0.51 | 0.00 | 87 | 1015.7 |
| 20260505003924 | 67 | 233 | 5.0 | 6.0 | 0.00 | 0.51 | 0.00 | 87 | 1015.7 |
| 20260505003452 | 67 | 271 | 2.0 | 5.0 | 0.00 | 0.51 | 0.00 | 87 | 1015.7 |
| 20260505003413 | 67 | 304 | 2.0 | 6.0 | 0.00 | 0.51 | 0.00 | 87 | 1015.7 |
| 20260505002952 | 67 | 334 | 2.0 | 9.0 | 0.00 | 0.51 | 0.00 | 87 | 1015.6 |
| 20260505002452 | 67 | 246 | 2.0 | 5.0 | 0.00 | 0.51 | 0.00 | 87 | 1015.5 |
| 20260505002354 | 67 | 250 | 3.0 | 5.0 | 0.00 | 0.51 | 0.00 | 87 | 1015.6 |
| 20260505001951 | 67 | 273 | 2.0 | 6.0 | 0.00 | 0.51 | 0.00 | 87 | 1015.6 |
| 20260505001843 | 68 | 225 | 2.0 | 7.0 | 0.00 | 0.51 | 0.00 | 88 | 1015.6 |
| 20260505001452 | 67 | 185 | 4.0 | 7.0 | 0.00 | 0.51 | 0.00 | 87 | 1015.5 |
| 20260505001333 | 67 | 238 | 3.0 | 6.0 | 0.00 | 0.51 | 0.00 | 87 | 1015.5 |
| 20260505000952 | 67 | 41 | 2.0 | 14.0 | 0.00 | 0.51 | 0.00 | 87 | 1015.4 |
| 20260505000823 | 67 | 230 | 3.0 | 16.0 | 0.00 | 0.51 | 0.00 | 87 | 1015.4 |
| 20260505000452 | 67 | 54 | 9.0 | 16.0 | 0.00 | 0.51 | 0.00 | 87 | 1015.4 |
| 20260505000314 | 67 | 236 | 4.0 | 9.0 | 0.00 | 0.51 | 0.00 | 87 | 1015.3 |
| 20260504235952 | 67 | 26 | 1.0 | 9.0 | 0.00 | 0.51 | 0.00 | 87 | 1015.4 |
| 20260504235803 | 67 | 262 | 2.0 | 9.0 | 0.00 | 0.51 | 0.00 | 88 | 1015.3 |
| 20260504235452 | 67 | 226 | 3.0 | 5.0 | 0.00 | 0.51 | 0.00 | 88 | 1015.3 |
| 20260504235253 | 67 | 266 | 1.0 | 12.0 | 0.00 | 0.51 | 0.00 | 88 | 1015.2 |
| 20260504234952 | 67 | 275 | 3.0 | 19.0 | 0.00 | 0.51 | 0.00 | 88 | 1015.2 |
| 20260504234743 | 67 | 51 | 4.0 | 19.0 | 0.00 | 0.51 | 0.00 | 87 | 1015.3 |
| 20260504234452 | 67 | 10 | 6.0 | 14.0 | 0.00 | 0.51 | 0.00 | 88 | 1015.2 |
| 20260504234233 | 67 | 293 | 4.0 | 11.0 | 0.00 | 0.51 | 0.00 | 88 | 1015.1 |
| 20260504233951 | 67 | 236 | 4.0 | 12.0 | 0.00 | 0.51 | 0.00 | 88 | 1015.0 |
| 20260504233723 | 67 | 85 | 4.0 | 12.0 | 0.00 | 0.51 | 0.00 | 88 | 1015.0 |
| 20260504233452 | 68 | 75 | 5.0 | 9.0 | 0.00 | 0.51 | 0.00 | 88 | 1015.0 |
| 20260504233213 | 67 | 262 | 2.0 | 13.0 | 0.00 | 0.51 | 0.00 | 88 | 1015.0 |
| 20260504232952 | 67 | 285 | 6.0 | 26.0 | 0.00 | 0.51 | 0.00 | 88 | 1015.0 |
| 20260504232703 | 67 | 144 | 11.0 | 26.0 | 0.00 | 0.51 | 0.00 | 88 | 1015.0 |
| 20260504232451 | 68 | 313 | 4.0 | 13.0 | 0.00 | 0.51 | 0.00 | 88 | 1014.9 |
| 20260504232153 | 68 | 320 | 6.0 | 22.0 | 0.00 | 0.51 | 0.00 | 88 | 1014.9 |
| 20260504231951 | 68 | 237 | 9.0 | 22.0 | 0.00 | 0.51 | 0.00 | 88 | 1014.9 |
| 20260504231452 | 68 | 264 | 8.0 | 13.0 | 0.00 | 0.51 | 0.00 | 88 | 1015.0 |
| 20260504231132 | 68 | 294 | 1.0 | 10.0 | 0.00 | 0.51 | 0.00 | 88 | 1015.0 |
| 20260504230951 | 68 | 343 | 6.0 | 10.0 | 0.00 | 0.51 | 0.00 | 88 | 1015.1 |
| 20260504230623 | 68 | 190 | 2.0 | 7.0 | 0.00 | 0.51 | 0.00 | 88 | 1015.0 |
| 20260504230451 | 68 | 30 | 2.0 | 7.0 | 0.00 | 0.51 | 0.00 | 88 | 1015.0 |
| 20260504230113 | 68 | 29 | 0.0 | 12.0 | 0.00 | 0.51 | 0.00 | 88 | 1015.0 |
| 20260504225952 | 68 | 257 | 5.0 | 12.0 | 0.00 | 0.51 | 0.00 | 88 | 1014.9 |
| 20260504225603 | 68 | 295 | 4.0 | 8.0 | 0.00 | 0.51 | 0.00 | 88 | 1015.0 |
| 20260504225451 | 68 | 244 | 2.0 | 8.0 | 0.00 | 0.51 | 0.00 | 88 | 1015.0 |
| 20260504225053 | 68 | 313 | 1.0 | 6.0 | 0.00 | 0.51 | 0.00 | 88 | 1015.0 |
| 20260504224952 | 68 | 238 | 4.0 | 6.0 | 0.00 | 0.51 | 0.00 | 88 | 1015.0 |
| 20260504224543 | 68 | 335 | 2.0 | 9.0 | 0.00 | 0.51 | 0.00 | 87 | 1015.0 |
| 20260504224452 | 68 | 256 | 3.0 | 9.0 | 0.00 | 0.51 | 0.00 | 87 | 1014.9 |
| 20260504224032 | 68 | 356 | 4.0 | 9.0 | 0.00 | 0.51 | 0.00 | 87 | 1014.9 |
| 20260504223951 | 68 | 310 | 5.0 | 9.0 | 0.00 | 0.51 | 0.00 | 87 | 1014.9 |
| 20260504223522 | 68 | 13 | 3.0 | 9.0 | 0.00 | 0.51 | 0.00 | 87 | 1014.8 |
| 20260504223451 | 68 | 9 | 0.0 | 5.0 | 0.00 | 0.51 | 0.00 | 87 | 1014.9 |
| 20260504223013 | 68 | 246 | 5.0 | 17.0 | 0.00 | 0.51 | 0.00 | 87 | 1014.8 |
| 20260504222951 | 68 | 275 | 9.0 | 17.0 | 0.00 | 0.51 | 0.00 | 87 | 1014.8 |
| 20260504222502 | 68 | 2 | 3.0 | 7.0 | 0.00 | 0.51 | 0.00 | 87 | 1014.7 |
| 20260504222451 | 68 | 263 | 2.0 | 8.0 | 0.00 | 0.51 | 0.00 | 87 | 1014.7 |
| 20260504221953 | 68 | 271 | 3.0 | 8.0 | 0.00 | 0.51 | 0.00 | 86 | 1014.7 |
| 20260504221951 | 68 | 258 | 3.0 | 8.0 | 0.00 | 0.51 | 0.00 | 86 | 1014.7 |
| 20260504221451 | 68 | 278 | 4.0 | 8.0 | 0.00 | 0.51 | 0.00 | 86 | 1014.7 |
| 20260504221443 | 68 | 266 | 4.0 | 8.0 | 0.00 | 0.51 | 0.00 | 86 | 1014.8 |
| 20260504220951 | 68 | 292 | 1.0 | 7.0 | 0.00 | 0.51 | 0.00 | 86 | 1014.8 |
| 20260504220932 | 68 | 324 | 2.0 | 9.0 | 0.00 | 0.51 | 0.00 | 86 | 1014.8 |
| 20260504220451 | 69 | 232 | 6.0 | 15.0 | 0.00 | 0.51 | 0.00 | 85 | 1014.8 |
| 20260504220422 | 69 | 224 | 3.0 | 15.0 | 0.00 | 0.51 | 0.00 | 85 | 1014.7 |
| 20260504215951 | 69 | 359 | 2.0 | 13.0 | 0.00 | 0.51 | 0.00 | 84 | 1014.7 |
| 20260504215913 | 69 | 53 | 2.0 | 13.0 | 0.00 | 0.51 | 0.00 | 84 | 1014.8 |
| 20260504215451 | 69 | 275 | 2.0 | 7.0 | 0.00 | 0.51 | 0.00 | 84 | 1014.7 |
| 20260504215402 | 69 | 262 | 2.0 | 7.0 | 0.00 | 0.51 | 0.00 | 84 | 1014.8 |
| 20260504214951 | 69 | 255 | 2.0 | 8.0 | 0.00 | 0.51 | 0.00 | 84 | 1014.8 |
| 20260504214852 | 69 | 257 | 3.0 | 8.0 | 0.00 | 0.51 | 0.00 | 84 | 1014.8 |
| 20260504214451 | 69 | 33 | 3.0 | 11.0 | 0.00 | 0.51 | 0.00 | 84 | 1014.5 |
| 20260504214342 | 69 | 238 | 2.0 | 11.0 | 0.00 | 0.51 | 0.00 | 84 | 1014.6 |
| 20260504213951 | 69 | 325 | 3.0 | 18.0 | 0.00 | 0.51 | 0.00 | 84 | 1014.4 |
| 20260504213832 | 69 | 214 | 6.0 | 18.0 | 0.00 | 0.51 | 0.00 | 84 | 1014.4 |
| 20260504213451 | 69 | 294 | 6.0 | 17.0 | 0.00 | 0.51 | 0.00 | 84 | 1014.3 |
| 20260504213323 | 69 | 249 | 8.0 | 17.0 | 0.00 | 0.51 | 0.00 | 84 | 1014.2 |
| 20260504212950 | 69 | 360 | 1.0 | 5.0 | 0.00 | 0.51 | 0.00 | 84 | 1014.2 |
| 20260504212812 | 69 | 343 | 4.0 | 10.0 | 0.00 | 0.51 | 0.00 | 84 | 1014.2 |
| 20260504212451 | 69 | 352 | 3.0 | 10.0 | 0.00 | 0.51 | 0.00 | 83 | 1014.2 |
| 20260504212304 | 69 | 243 | 3.0 | 7.0 | 0.00 | 0.51 | 0.00 | 83 | 1014.2 |
| 20260504211950 | 69 | 291 | 3.0 | 9.0 | 0.00 | 0.51 | 0.00 | 83 | 1014.3 |
| 20260504211752 | 70 | 296 | 2.0 | 13.0 | 0.00 | 0.51 | 0.00 | 83 | 1014.3 |
| 20260504211451 | 70 | 301 | 3.0 | 13.0 | 0.00 | 0.51 | 0.00 | 83 | 1014.3 |
| 20260504211242 | 70 | 240 | 4.0 | 10.0 | 0.00 | 0.51 | 0.00 | 83 | 1014.4 |
| 20260504210950 | 70 | 236 | 5.0 | 9.0 | 0.00 | 0.51 | 0.00 | 83 | 1014.3 |
| 20260504210732 | 70 | 203 | 4.0 | 14.0 | 0.00 | 0.51 | 0.00 | 83 | 1014.3 |
| 20260504210450 | 70 | 352 | 2.0 | 15.0 | 0.00 | 0.51 | 0.00 | 83 | 1014.2 |
| 20260504210222 | 70 | 270 | 5.0 | 10.0 | 0.00 | 0.51 | 0.00 | 83 | 1014.2 |
| 20260504205951 | 70 | 263 | 4.0 | 9.0 | 0.00 | 0.51 | 0.00 | 83 | 1014.2 |
| 20260504205710 | 70 | 294 | 2.0 | 9.0 | 0.00 | 0.51 | 0.00 | 83 | 1014.3 |
| 20260504205450 | 70 | 256 | 3.0 | 9.0 | 0.00 | 0.51 | 0.00 | 83 | 1014.3 |
| 20260504205202 | 70 | 298 | 3.0 | 10.0 | 0.00 | 0.51 | 0.00 | 83 | 1014.4 |
| 20260504204951 | 70 | 272 | 6.0 | 10.0 | 0.00 | 0.51 | 0.00 | 83 | 1014.4 |
| 20260504204652 | 70 | 267 | 0.0 | 10.0 | 0.00 | 0.51 | 0.00 | 83 | 1014.4 |
| 20260504204449 | 70 | 336 | 4.0 | 10.0 | 0.00 | 0.51 | 0.00 | 83 | 1014.4 |
| 20260504204142 | 70 | 74 | 2.0 | 9.0 | 0.00 | 0.51 | 0.00 | 82 | 1014.3 |
| 20260504203950 | 70 | 232 | 1.0 | 16.0 | 0.00 | 0.51 | 0.00 | 83 | 1014.3 |
| 20260504203632 | 70 | 298 | 4.0 | 16.0 | 0.00 | 0.51 | 0.00 | 83 | 1014.2 |
| 20260504203451 | 70 | 232 | 9.0 | 15.0 | 0.00 | 0.51 | 0.00 | 83 | 1014.2 |
| 20260504203121 | 70 | 26 | 4.0 | 13.0 | 0.00 | 0.51 | 0.00 | 83 | 1014.2 |
| 20260504202950 | 70 | 296 | 2.0 | 13.0 | 0.00 | 0.51 | 0.00 | 83 | 1014.1 |
| 20260504202612 | 70 | 30 | 3.0 | 8.0 | 0.00 | 0.51 | 0.00 | 83 | 1014.1 |
| 20260504202451 | 70 | 234 | 2.0 | 10.0 | 0.00 | 0.51 | 0.00 | 83 | 1014.2 |
| 20260504202101 | 70 | 250 | 5.0 | 18.0 | 0.00 | 0.51 | 0.00 | 83 | 1014.2 |
| 20260504201950 | 70 | 10 | 5.0 | 18.0 | 0.00 | 0.51 | 0.00 | 83 | 1014.1 |
| 20260504201552 | 70 | 340 | 4.0 | 12.0 | 0.00 | 0.51 | 0.00 | 83 | 1014.2 |
| 20260504201450 | 70 | 214 | 6.0 | 12.0 | 0.00 | 0.51 | 0.00 | 83 | 1014.1 |
| 20260504201041 | 70 | 171 | 2.0 | 12.0 | 0.00 | 0.51 | 0.00 | 83 | 1014.2 |
| 20260504200950 | 70 | 271 | 4.0 | 12.0 | 0.00 | 0.51 | 0.00 | 83 | 1014.2 |
| 20260504200531 | 70 | 299 | 3.0 | 10.0 | 0.00 | 0.51 | 0.00 | 83 | 1014.1 |
| 20260504200450 | 70 | 267 | 5.0 | 10.0 | 0.00 | 0.51 | 0.00 | 83 | 1014.2 |
| 20260504200022 | 70 | 355 | 2.0 | 5.0 | 0.00 | 0.51 | 0.00 | 83 | 1014.1 |
| 20260504195950 | 70 | 279 | 1.0 | 4.0 | 0.00 | 0.51 | 0.00 | 83 | 1014.1 |
| 20260504195512 | 70 | 152 | 2.0 | 16.0 | 0.00 | 0.51 | 0.00 | 83 | 1014.2 |
| 20260504195450 | 70 | 317 | 4.0 | 16.0 | 0.00 | 0.51 | 0.00 | 83 | 1014.2 |
| 20260504195001 | 70 | 331 | 2.0 | 6.0 | 0.00 | 0.51 | 0.00 | 84 | 1014.2 |
| 20260504194950 | 70 | 360 | 1.0 | 6.0 | 0.00 | 0.51 | 0.00 | 84 | 1014.2 |
| 20260504194452 | 70 | 63 | 1.0 | 12.0 | 0.00 | 0.51 | 0.00 | 83 | 1014.1 |
| 20260504194449 | 70 | 109 | 1.0 | 12.0 | 0.00 | 0.51 | 0.00 | 83 | 1014.2 |
| 20260504193950 | 70 | 335 | 8.0 | 21.0 | 0.00 | 0.51 | 0.00 | 84 | 1014.0 |
| 20260504193941 | 70 | 18 | 10.0 | 21.0 | 0.00 | 0.51 | 0.00 | 84 | 1014.0 |
| 20260504193450 | 70 | 269 | 7.0 | 14.0 | 0.00 | 0.51 | 0.00 | 84 | 1014.0 |
| 20260504193431 | 70 | 272 | 10.0 | 14.0 | 0.00 | 0.51 | 0.00 | 84 | 1014.0 |
| 20260504192921 | 70 | 232 | 4.0 | 10.0 | 0.00 | 0.51 | 0.00 | 84 | 1014.0 |
| 20260504192450 | 70 | 283 | 6.0 | 10.0 | 0.00 | 0.51 | 0.00 | 84 | 1014.0 |
| 20260504192411 | 70 | 277 | 4.0 | 10.0 | 0.00 | 0.51 | 0.00 | 84 | 1013.9 |
| 20260504191950 | 70 | 294 | 5.0 | 13.0 | 0.00 | 0.51 | 0.00 | 84 | 1014.0 |
| 20260504191901 | 70 | 254 | 5.0 | 16.0 | 0.00 | 0.51 | 0.00 | 84 | 1014.0 |
| 20260504191449 | 70 | 226 | 6.0 | 16.0 | 0.00 | 0.51 | 0.00 | 84 | 1014.0 |
| 20260504191351 | 70 | 255 | 4.0 | 10.0 | 0.00 | 0.51 | 0.00 | 84 | 1014.0 |
| 20260504190950 | 70 | 24 | 0.0 | 9.0 | 0.00 | 0.51 | 0.00 | 84 | 1014.1 |
| 20260504190841 | 70 | 53 | 0.0 | 9.0 | 0.00 | 0.51 | 0.00 | 84 | 1014.1 |
| 20260504190450 | 70 | 20 | 1.0 | 10.0 | 0.00 | 0.51 | 0.00 | 85 | 1014.2 |
| 20260504190331 | 70 | 37 | 4.0 | 16.0 | 0.00 | 0.51 | 0.00 | 85 | 1014.1 |
| 20260504185949 | 70 | 25 | 4.0 | 16.0 | 0.00 | 0.51 | 0.00 | 85 | 1014.2 |
| 20260504185820 | 70 | 67 | 1.0 | 8.0 | 0.00 | 0.51 | 0.00 | 85 | 1014.2 |
| 20260504185449 | 70 | 334 | 3.0 | 8.0 | 0.00 | 0.51 | 0.00 | 85 | 1014.2 |
| 20260504185311 | 70 | 336 | 1.0 | 7.0 | 0.00 | 0.51 | 0.00 | 85 | 1014.2 |
| 20260504184950 | 70 | 34 | 3.0 | 7.0 | 0.00 | 0.51 | 0.00 | 85 | 1014.2 |
| 20260504184800 | 70 | 47 | 2.0 | 6.0 | 0.00 | 0.51 | 0.00 | 85 | 1014.3 |
| 20260504184449 | 70 | 205 | 2.0 | 7.0 | 0.00 | 0.51 | 0.00 | 85 | 1014.4 |
| 20260504184251 | 70 | 313 | 2.0 | 7.0 | 0.00 | 0.51 | 0.00 | 84 | 1014.4 |
| 20260504183949 | 70 | 245 | 1.0 | 8.0 | 0.00 | 0.51 | 0.00 | 84 | 1014.4 |
| 20260504183741 | 70 | 359 | 0.0 | 8.0 | 0.00 | 0.51 | 0.00 | 84 | 1014.3 |
| 20260504183449 | 70 | 351 | 3.0 | 6.0 | 0.00 | 0.51 | 0.00 | 84 | 1014.3 |
| 20260504183230 | 70 | 110 | 3.0 | 8.0 | 0.00 | 0.51 | 0.00 | 84 | 1014.4 |
| 20260504182949 | 70 | 330 | 4.0 | 8.0 | 0.00 | 0.51 | 0.00 | 84 | 1014.4 |
| 20260504182721 | 71 | 273 | 2.0 | 4.0 | 0.00 | 0.51 | 0.00 | 84 | 1014.3 |
| 20260504182450 | 71 | 62 | 0.0 | 12.0 | 0.00 | 0.51 | 0.00 | 84 | 1014.4 |
| 20260504182210 | 71 | 347 | 6.0 | 12.0 | 0.00 | 0.51 | 0.00 | 83 | 1014.5 |
| 20260504181949 | 71 | 46 | 2.0 | 7.0 | 0.00 | 0.51 | 0.00 | 83 | 1014.7 |
| 20260504181700 | 71 | 360 | 1.0 | 12.0 | 0.00 | 0.51 | 0.00 | 83 | 1014.9 |
| 20260504181449 | 71 | 27 | 3.0 | 14.0 | 0.00 | 0.51 | 0.00 | 83 | 1014.8 |
| 20260504181151 | 71 | 21 | 4.0 | 14.0 | 0.00 | 0.51 | 0.00 | 83 | 1014.9 |
| 20260504180949 | 71 | 25 | 1.0 | 9.0 | 0.00 | 0.51 | 0.00 | 83 | 1014.9 |
| 20260504180641 | 71 | 359 | 3.0 | 13.0 | 0.00 | 0.51 | 0.00 | 83 | 1015.0 |
| 20260504180449 | 71 | 201 | 8.0 | 13.0 | 0.00 | 0.51 | 0.00 | 83 | 1015.0 |
| 20260504180130 | 71 | 138 | 1.0 | 6.0 | 0.00 | 0.51 | 0.00 | 83 | 1014.9 |
| 20260504175949 | 71 | 343 | 2.0 | 6.0 | 0.00 | 0.51 | 0.00 | 83 | 1015.0 |
| 20260504175621 | 71 | 181 | 3.0 | 6.0 | 0.00 | 0.51 | 0.00 | 83 | 1015.1 |
| 20260504175449 | 71 | 273 | 2.0 | 5.0 | 0.00 | 0.51 | 0.00 | 83 | 1015.1 |
| 20260504175110 | 71 | 308 | 1.0 | 12.0 | 0.00 | 0.51 | 0.00 | 83 | 1015.1 |
| 20260504174949 | 71 | 268 | 1.0 | 14.0 | 0.00 | 0.51 | 0.00 | 83 | 1015.2 |
| 20260504174600 | 71 | 270 | 4.0 | 14.0 | 0.00 | 0.51 | 0.00 | 83 | 1015.2 |
| 20260504174449 | 71 | 225 | 3.0 | 13.0 | 0.00 | 0.51 | 0.00 | 83 | 1015.1 |
| 20260504174051 | 72 | 27 | 2.0 | 10.0 | 0.00 | 0.51 | 0.00 | 84 | 1015.1 |
| 20260504173949 | 71 | 243 | 0.0 | 10.0 | 0.00 | 0.51 | 0.00 | 83 | 1015.2 |
| 20260504173540 | 71 | 330 | 5.0 | 12.0 | 0.00 | 0.51 | 0.00 | 83 | 1015.1 |
| 20260504173449 | 71 | 10 | 3.0 | 12.0 | 0.00 | 0.51 | 0.00 | 84 | 1015.1 |
| 20260504173030 | 72 | 345 | 2.0 | 8.0 | 0.00 | 0.51 | 0.00 | 83 | 1015.2 |
| 20260504172949 | 72 | 356 | 2.0 | 8.0 | 0.00 | 0.51 | 0.00 | 83 | 1015.2 |
| 20260504172520 | 72 | 343 | 1.0 | 6.0 | 0.00 | 0.51 | 0.00 | 83 | 1015.3 |
| 20260504172448 | 72 | 13 | 0.0 | 6.0 | 0.00 | 0.51 | 0.00 | 83 | 1015.3 |
| 20260504172010 | 72 | 95 | 4.0 | 7.0 | 0.00 | 0.51 | 0.00 | 83 | 1015.3 |
| 20260504171949 | 72 | 30 | 4.0 | 7.0 | 0.00 | 0.51 | 0.00 | 83 | 1015.3 |
| 20260504171500 | 72 | 48 | 2.0 | 14.0 | 0.00 | 0.51 | 0.00 | 83 | 1015.3 |
| 20260504171448 | 72 | 37 | 3.0 | 14.0 | 0.00 | 0.51 | 0.00 | 83 | 1015.3 |
| 20260504170951 | 72 | 34 | 4.0 | 14.0 | 0.00 | 0.51 | 0.00 | 82 | 1015.4 |
| 20260504170949 | 72 | 360 | 4.0 | 14.0 | 0.00 | 0.51 | 0.00 | 82 | 1015.4 |
| 20260504170448 | 72 | 260 | 2.0 | 7.0 | 0.00 | 0.51 | 0.00 | 82 | 1015.4 |
| 20260504170439 | 72 | 312 | 1.0 | 7.0 | 0.00 | 0.51 | 0.00 | 82 | 1015.4 |
| 20260504160240 | 72 | 313 | 3.0 | 8.0 | 0.00 | 0.51 | 0.00 | 84 | 1015.7 |
| 20260504151059 | 71 | 217 | 3.0 | 17.0 | 0.00 | 0.51 | 0.00 | 85 | 1016.4 |
| 20260504150947 | 71 | 360 | 3.0 | 17.0 | 0.00 | 0.51 | 0.00 | 85 | 1016.4 |
| 20260504150549 | 71 | 252 | 9.0 | 13.0 | 0.00 | 0.51 | 0.00 | 85 | 1016.3 |
| 20260504150448 | 71 | 225 | 1.0 | 9.0 | 0.00 | 0.51 | 0.00 | 85 | 1016.4 |
| 20260504140948 | 72 | 351 | 1.0 | 18.0 | 0.00 | 0.51 | 0.00 | 86 | 1016.1 |
| 20260504140858 | 71 | 274 | 10.0 | 18.0 | 0.00 | 0.51 | 0.00 | 86 | 1016.1 |
| 20260504140447 | 72 | 337 | 4.0 | 13.0 | 0.00 | 0.51 | 0.00 | 86 | 1016.1 |
| 20260504140348 | 72 | 2 | 7.0 | 17.0 | 0.00 | 0.51 | 0.00 | 86 | 1016.1 |
| 20260504130658 | 73 | 231 | 4.0 | 12.0 | 0.00 | 0.51 | 0.00 | 85 | 1015.7 |
| 20260504130447 | 73 | 263 | 4.0 | 12.0 | 0.00 | 0.51 | 0.00 | 85 | 1015.7 |
| 20260504130148 | 73 | 252 | 2.0 | 12.0 | 0.00 | 0.51 | 0.00 | 85 | 1015.6 |
| 20260504110445 | 73 | 339 | 5.0 | 10.0 | 0.00 | 0.51 | 0.00 | 85 | 1015.0 |
| 20260504110257 | 73 | 119 | 2.0 | 11.0 | 0.00 | 0.51 | 0.00 | 85 | 1015.1 |
| 20260504100607 | 73 | 219 | 1.0 | 13.0 | 0.00 | 0.51 | 0.00 | 85 | 1014.5 |
| 20260504100446 | 73 | 317 | 1.0 | 13.0 | 0.00 | 0.51 | 0.00 | 85 | 1014.4 |
| 20260504081944 | 77 | 56 | 6.0 | 15.0 | 0.10 | 0.48 | 0.00 | 75 | 1014.6 |
| 20260504081736 | 77 | 50 | 0.0 | 15.0 | 0.11 | 0.48 | 0.00 | 75 | 1014.6 |
| 20260504081445 | 77 | 113 | 2.0 | 9.0 | 0.12 | 0.49 | 0.00 | 74 | 1014.5 |
| 20260504081226 | 77 | 57 | 2.0 | 10.0 | 0.14 | 0.49 | 0.00 | 74 | 1014.6 |
| 20260504080944 | 77 | 69 | 5.0 | 10.0 | 0.14 | 0.49 | 0.00 | 74 | 1014.7 |
| 20260504080716 | 77 | 81 | 1.0 | 9.0 | 0.11 | 0.47 | 0.00 | 74 | 1014.8 |
| 20260504080444 | 77 | 360 | 1.0 | 9.0 | 0.11 | 0.46 | 0.00 | 74 | 1014.8 |
| 20260504080206 | 77 | 46 | 3.0 | 8.0 | 0.10 | 0.44 | 0.00 | 74 | 1014.9 |